[Date Prev][Date Next][Thread Prev][Thread Next] - [Date Index][Thread Index][Author Index]

2 Line ISS Keps 5-15



ISS
1 25544U 98067A   03135.16006566  .00010783  00000-0  14066-3 0   105
2 25544  51.6314 186.2028 0006227 114.0199 297.7428 15.59268328255854


----
Via the sarex mailing list at AMSAT.ORG courtesy of AMSAT-NA.
To unsubscribe, send "unsubscribe sarex" to Majordomo@amsat.org



AMSAT Top AMSAT Home